Owensboro, KY

12:13 PM CDT on May 21, 2018 (GMT -0500)
Owensboro-Daviess County

Weather History for KOWB - March, 2012

Change the Weather History Date:

Saturday, March 17, 2012

  Actual Average Record
Temperature  
Mean Temperature 66 °F -  
Max Temperature 77 °F 56 °F 79 °F (1989)
Min Temperature 54 °F 34 °F 13 °F (1941)
Growing Degree Days 16 (Base 50)    
Moisture  
Dew Point 58 °F    
Average Humidity 91    
Maximum Humidity 100    
Minimum Humidity 62    
Precipitation  
Precipitation 0.00 in - - ()
Sea Level Pressure  
Sea Level Pressure 30.12 in    
Wind  
Wind Speed 2 mph (South)    
Max Wind Speed 10 mph    
Max Gust Speed -    
Visibility 5 miles    
Events Fog , Rain , Thunderstorm    
Averages and records for this station are not official NWS values.
T = Trace of Precipitation, MM = Missing Value Source: NWS Daily Summary

Daily Weather History Graph

Daily Weather History Graph

Search for Another Location

Airport or City:

Astronomy

Mar. 17, 2012 Rise Set
Actual Time 6:55 AM CDT 6:58 PM CDT
Civil Twilight 6:29 AM CDT 7:24 PM CDT
Nautical Twilight 5:59 AM CDT 7:54 PM CDT
Astronomical Twilight 5:28 AM CDT 8:25 PM CDT
Moon 3:52 AM CDT (3/17) 2:26 PM CDT (3/17)
Length of Visible Light 12h 54m
Length of Day
12h 02m
Waning Crescent, 23% of the Moon is Illuminated
Mar 17
Waning Crescent
Mar 22
New
Mar 30
First Quarter
Apr 6
Full
Apr 13
Last Quarter

Hourly Weather History & Observations

Time (CDT) Temp. Dew Point Humidity Pressure Visibility Wind Dir Wind Speed Gust Speed Precip Events Conditions
12:56 AM 56.8 °F 56.8 °F 100% 30.12 in 2.0 mi Calm Calm - N/A   Clear
12:58 AM 57.2 °F 57.2 °F 100% 30.12 in 1.2 mi Calm Calm - N/A   Clear
1:03 AM 57.2 °F 57.2 °F 100% 30.12 in 0.8 mi Calm Calm - N/A   Clear
1:11 AM 57.2 °F 57.2 °F 100% 30.12 in 0.5 mi Calm Calm - N/A Fog Fog
1:16 AM 57.2 °F 57.2 °F 100% 30.12 in 1.0 mi Calm Calm - N/A   Clear
1:18 AM 57.2 °F 57.2 °F 100% 30.12 in 3.0 mi Calm Calm - N/A   Clear
1:32 AM 55.4 °F 55.4 °F 100% 30.12 in 1.2 mi Calm Calm - N/A   Clear
1:34 AM 55.4 °F 55.4 °F 100% 30.12 in 0.8 mi Calm Calm - N/A   Clear
1:38 AM 55.4 °F 55.4 °F 100% 30.12 in 0.2 mi Calm Calm - N/A Fog Fog
1:56 AM 55.9 °F 55.9 °F 100% 30.12 in 0.5 mi Calm Calm - N/A Fog Fog
2:06 AM 55.4 °F 55.4 °F 100% 30.12 in 0.2 mi Calm Calm - N/A Fog Fog
2:17 AM 55.4 °F 55.4 °F 100% 30.12 in 0.2 mi Calm Calm - N/A Fog Fog
2:56 AM 55.9 °F 55.9 °F 100% 30.12 in 0.2 mi Calm Calm - N/A Fog Fog
3:07 AM 55.4 °F 55.4 °F 100% 30.12 in 0.8 mi Calm Calm - N/A   Mostly Cloudy
3:10 AM 55.4 °F 55.4 °F 100% 30.12 in 2.0 mi Calm Calm - N/A   Scattered Clouds
3:36 AM 55.4 °F 55.4 °F 100% 30.11 in 1.2 mi Calm Calm - N/A   Clear
3:42 AM 55.4 °F 55.4 °F 100% 30.11 in 0.8 mi Calm Calm - N/A   Clear
3:56 AM 55.9 °F 55.9 °F 100% 30.11 in 1.5 mi Calm Calm - N/A   Clear
4:00 AM 55.4 °F 55.4 °F 100% 30.11 in 0.8 mi Calm Calm - N/A   Mostly Cloudy
4:03 AM 55.4 °F 55.4 °F 100% 30.11 in 0.2 mi Calm Calm - N/A Fog Fog
4:13 AM 55.4 °F 55.4 °F 100% 30.11 in 0.2 mi Calm Calm - N/A Fog Fog
4:29 AM 55.4 °F 55.4 °F 100% 30.12 in 0.8 mi Calm Calm - N/A   Mostly Cloudy
4:32 AM 55.4 °F 55.4 °F 100% 30.12 in 1.2 mi Calm Calm - N/A   Mostly Cloudy
4:36 AM 55.4 °F 55.4 °F 100% 30.12 in 2.0 mi Calm Calm - N/A   Mostly Cloudy
4:42 AM 55.4 °F 55.4 °F 100% 30.12 in 1.2 mi Calm Calm - N/A   Mostly Cloudy
4:56 AM 54.9 °F 54.9 °F 100% 30.11 in 4.0 mi Calm Calm - N/A   Mostly Cloudy
5:03 AM 55.4 °F 55.4 °F 100% 30.12 in 7.0 mi Calm Calm - N/A Thunderstorm Scattered Clouds
5:18 AM 55.4 °F 55.4 °F 100% 30.12 in 7.0 mi Calm Calm - N/A   Scattered Clouds
5:56 AM 57.2 °F 57.2 °F 100% 30.13 in 3.0 mi Calm Calm - N/A   Mostly Cloudy
6:56 AM 56.8 °F 56.8 °F 100% 30.14 in 3.0 mi East 3.5 mph - N/A   Mostly Cloudy
7:13 AM 57.2 °F 57.2 °F 100% 30.15 in 3.0 mi SE 3.5 mph - N/A   Mostly Cloudy
7:56 AM 59.0 °F 59.0 °F 100% 30.15 in 4.0 mi Calm Calm - N/A   Mostly Cloudy
8:56 AM 63.0 °F 63.0 °F 100% 30.16 in 10.0 mi SSE 9.2 mph - N/A   Clear
9:56 AM 68.0 °F 61.0 °F 78% 30.16 in 10.0 mi South 10.4 mph - N/A   Partly Cloudy
10:56 AM 68.9 °F 61.9 °F 78% 30.16 in 10.0 mi South 6.9 mph - N/A   Overcast
11:56 AM 72.9 °F 63.9 °F 73% 30.15 in 10.0 mi South 10.4 mph - N/A   Scattered Clouds
12:56 PM 75.9 °F 63.9 °F 66% 30.12 in 10.0 mi South 9.2 mph - N/A   Partly Cloudy
1:56 PM 77.0 °F 63.9 °F 64% 30.08 in 10.0 mi Calm Calm - 0.00 in Rain Light Rain
2:56 PM 77.0 °F 63.0 °F 62% 30.06 in 10.0 mi South 9.2 mph - 0.00 in   Partly Cloudy
3:12 PM 77.0 °F 64.4 °F 65% 30.07 in 10.0 mi SW 8.1 mph - 0.00 in Rain , Thunderstorm Light Thunderstorms and Rain
3:56 PM 73.9 °F 63.9 °F 71% 30.06 in 10.0 mi Calm Calm - 0.00 in Thunderstorm Thunderstorm
4:22 PM 73.4 °F 64.4 °F 73% 30.07 in 10.0 mi WSW 6.9 mph - N/A   Partly Cloudy
4:56 PM 75.2 °F 64.4 °F 69% 30.06 in 10.0 mi SW 8.1 mph - N/A   Scattered Clouds
5:56 PM 75.9 °F 63.0 °F 64% 30.06 in 10.0 mi WSW 9.2 mph - N/A   Mostly Cloudy
6:56 PM 70.0 °F 63.0 °F 78% 30.08 in 10.0 mi SW 4.6 mph - N/A   Mostly Cloudy
7:56 PM 70.9 °F 61.9 °F 73% 30.08 in 10.0 mi South 5.8 mph - N/A   Overcast
8:56 PM 68.0 °F 59.9 °F 75% 30.10 in 10.0 mi South 8.1 mph - 0.00 in   Mostly Cloudy
9:56 PM 65.8 °F 59.0 °F 79% 30.12 in 10.0 mi South 5.8 mph - N/A   Mostly Cloudy
10:56 PM 64.9 °F 59.9 °F 84% 30.14 in 10.0 mi South 5.8 mph - 0.00 in   Overcast
11:38 PM 64.4 °F 59.0 °F 83% 30.16 in 1.8 mi South 9.2 mph - 0.05 in Rain Heavy Rain
11:49 PM 64.4 °F 59.0 °F 83% 30.13 in 2.0 mi SSE 10.4 mph - 0.11 in Rain Light Rain
11:56 PM 64.4 °F 60.8 °F 88% 30.13 in 10.0 mi SSE 9.2 mph - N/A Rain Light Rain